32P/Comas Sola (2014)

Japanese version
Home page
Updated on November 5, 2020

---------------------------------------------------------------------

* Profile

* Pictures

* Orbital Elements

Epoch 2014 Oct. 30.0 TT = JDT 2456960.5
T 2014 Oct. 17.59717 TT                                 MPCW
q   2.0011850            (2000.0)            P               Q
n   0.10291186     Peri.   53.33774     -0.35115034     -0.92477540
a   4.5098188      Node    57.84879     +0.79431363     -0.37710364
e   0.5562604      Incl.    9.96944     +0.49574116     -0.05082617
P   9.58
From 2025 observations 1995 Aug. 1-2015 Jan. 1, mean residual 0".7.
     Nongravitational parameters A1 = -0.06, A2 = -0.0812.

* Finding Charts

* Magnitudes Graph

        m1 = 9.0 + 5 log d + 12.0 log r

---------------------------------------------------------------------

The orbital elements are published on M.P.E.C. 2015-A10.
The charts are made with StellaNavigator Ver.8 (AstroArts).
The magnitudes graphs are made with Comet for Windows.

---------------------------------------------------------------------

Copyright(C) Seiichi Yoshida (comet@aerith.net). All rights reserved.